COLIBRI-S (RS67S)

Last updated on Sun Aug 09 2026 00:03:16 GMT+0000 (Coordinated Universal Time)

1 61746U 24199M 26220.58922351 .00013651 00000+0 24609-3 0 9995 2 61746 97.2918 94.9780 0010017 90.0825 270.1575 15.49839142145522
UTC large
Height (km)
Speed (km/s)
/
Latitude / Longitude
Inclination (degrees)
Orbital Period (minutes)
Azimuth
Elevation
Range (km)
Doppler Factor

Next 0 passes for location: London (51.5072 / 0.1276)

No passes found over London.
COLIBRI-S (RS67S)